�������l�o���
Date,Time,MP-1(��Sv/h),MP-2(��Sv/h),MP-3(��Sv/h),MP-4(��Sv/h),MP-5(��Sv/h),MP-6(��Sv/h),MP-7(��Sv/h),MP-8(��Sv/h),����,����(m/s),���J
2021/08/09,00:00,0.573,0.844,0.547,1.026,0.719,0.353,0.611,0.573,�k��,8.5,�L
2021/08/09,00:10,0.577,0.848,0.551,1.031,0.722,0.356,0.612,0.573,�k�k��,7.9,�L
2021/08/09,00:20,0.579,0.850,0.551,1.032,0.722,0.355,0.614,0.574,�k�k��,6.6,�L
2021/08/09,00:30,0.580,0.851,0.552,1.033,0.724,0.355,0.613,0.575,�k�k��,7.2,�L
2021/08/09,00:40,0.580,0.855,0.551,1.038,0.726,0.356,0.615,0.576,�k��,7.3,�L
2021/08/09,00:50,0.580,0.855,0.553,1.039,0.725,0.357,0.615,0.576,�k��,6.9,�L
2021/08/09,01:00,0.582,0.855,0.553,1.039,0.730,0.357,0.616,0.576,�k�k��,6.2,�L
2021/08/09,01:10,0.580,0.855,0.552,1.043,0.727,0.356,0.616,0.577,�k��,7.1,�L
2021/08/09,01:20,0.580,0.857,0.552,1.043,0.729,0.357,0.616,0.576,�k��,5.9,�L
2021/08/09,01:30,0.582,0.857,0.553,1.043,0.731,0.356,0.615,0.578,�k��,6.3,�L
2021/08/09,01:40,0.581,0.858,0.554,1.044,0.731,0.356,0.616,0.576,�k��,4.5,�L
2021/08/09,01:50,0.582,0.857,0.556,1.044,0.732,0.356,0.615,0.578,�k��,4.8,��
2021/08/09,02:00,0.583,0.858,0.555,1.045,0.731,0.356,0.617,0.576,�k��,6.3,�L
2021/08/09,02:10,0.581,0.856,0.553,1.046,0.732,0.356,0.616,0.578,�k��,7.0,�L
2021/08/09,02:20,0.579,0.858,0.552,1.043,0.730,0.356,0.616,0.576,�k��,6.5,�L
2021/08/09,02:30,0.579,0.857,0.552,1.045,0.728,0.357,0.615,0.578,�k��,6.0,�L
2021/08/09,02:40,0.579,0.852,0.552,1.044,0.728,0.356,0.615,0.578,�k��,6.0,�L
2021/08/09,02:50,0.580,0.852,0.552,1.043,0.727,0.356,0.616,0.577,�k��,5.2,�L
2021/08/09,03:00,0.576,0.852,0.551,1.038,0.724,0.356,0.615,0.577,�k��,5.2,�L
2021/08/09,03:10,0.576,0.850,0.552,1.038,0.725,0.355,0.614,0.577,�k�k��,5.5,�L
2021/08/09,03:20,0.577,0.853,0.552,1.039,0.727,0.355,0.613,0.577,�k��,4.8,�L
2021/08/09,03:30,0.579,0.853,0.551,1.040,0.729,0.357,0.616,0.578,�k��,5.3,�L
2021/08/09,03:40,0.579,0.855,0.552,1.039,0.730,0.357,0.614,0.576,�k��,4.9,��
2021/08/09,03:50,0.581,0.856,0.553,1.042,0.730,0.356,0.615,0.577,�k�k��,5.6,��
2021/08/09,04:00,0.581,0.855,0.553,1.043,0.730,0.358,0.615,0.579,�k��,4.4,��
2021/08/09,04:10,0.579,0.859,0.555,1.046,0.730,0.357,0.614,0.578,�k��,4.7,��
2021/08/09,04:20,0.581,0.858,0.553,1.045,0.733,0.358,0.616,0.579,�k��,3.5,��
2021/08/09,04:30,0.580,0.860,0.555,1.046,0.734,0.357,0.617,0.579,�k��,3.1,��
2021/08/09,04:40,0.583,0.861,0.556,1.046,0.732,0.358,0.617,0.579,�k��,2.3,��
2021/08/09,04:50,0.582,0.862,0.556,1.046,0.733,0.358,0.618,0.580,�k��,2.8,��
2021/08/09,05:00,0.583,0.862,0.556,1.045,0.733,0.358,0.617,0.579,�k�k��,3.2,��
2021/08/09,05:10,0.583,0.861,0.556,1.048,0.735,0.358,0.616,0.579,�k�k��,3.1,��
2021/08/09,05:20,0.581,0.862,0.556,1.048,0.734,0.359,0.618,0.579,�k�k��,3.0,��
2021/08/09,05:30,0.583,0.862,0.557,1.048,0.736,0.358,0.617,0.580,�k��,2.3,��
2021/08/09,05:40,0.584,0.865,0.557,1.049,0.735,0.359,0.617,0.582,�k��,2.0,��
2021/08/09,05:50,0.583,0.863,0.557,1.050,0.736,0.359,0.618,0.581,�k�k��,0.9,��
2021/08/09,06:00,0.583,0.863,0.555,1.052,0.737,0.359,0.618,0.581,�k�k��,0.6,��
2021/08/09,06:10,0.585,0.864,0.555,1.052,0.736,0.358,0.618,0.581,���k��,1.5,��
2021/08/09,06:20,0.584,0.865,0.556,1.049,0.736,0.358,0.619,0.581,�k,2.0,��
2021/08/09,06:30,0.585,0.865,0.558,1.050,0.737,0.360,0.619,0.582,�k,0.9,��
2021/08/09,06:40,0.585,0.864,0.559,1.051,0.737,0.358,0.620,0.579,�쐼,0.9,��
2021/08/09,06:50,0.585,0.866,0.559,1.051,0.738,0.358,0.621,0.582,�쐼,1.4,��
2021/08/09,07:00,0.586,0.866,0.556,1.051,0.739,0.359,0.619,0.582,�쐼,0.8,��
2021/08/09,07:10,0.586,0.864,0.558,1.052,0.740,0.359,0.619,0.580,�쐼,2.0,��
2021/08/09,07:20,0.586,0.867,0.558,1.052,0.741,0.360,0.619,0.581,�쐼,1.4,��
2021/08/09,07:30,0.586,0.867,0.558,1.050,0.741,0.359,0.620,0.582,�k,0.6,��
2021/08/09,07:40,0.586,0.867,0.560,1.052,0.742,0.361,0.618,0.581,-,CALM,��
2021/08/09,07:50,0.587,0.868,0.559,1.054,0.741,0.357,0.618,0.582,���k��,1.1,��
2021/08/09,08:00,0.587,0.870,0.558,1.054,0.743,0.359,0.620,0.581,�k�k��,1.4,��
2021/08/09,08:10,0.590,0.870,0.559,1.053,0.742,0.360,0.619,0.580,�k�k��,2.5,��
2021/08/09,08:20,0.587,0.871,0.559,1.053,0.743,0.361,0.621,0.581,�k�k��,3.1,��
2021/08/09,08:30,0.589,0.869,0.557,1.054,0.743,0.361,0.621,0.579,�k��,2.3,��
2021/08/09,08:40,0.589,0.870,0.559,1.051,0.741,0.361,0.620,0.580,���k��,2.6,��
2021/08/09,08:50,0.586,0.870,0.559,1.053,0.742,0.361,0.620,0.581,���k��,1.2,��
2021/08/09,09:00,0.588,0.869,0.560,1.055,0.742,0.359,0.619,0.581,���k��,3.0,��
2021/08/09,09:10,0.589,0.871,0.559,1.058,0.743,0.361,0.620,0.583,��,2.5,��
2021/08/09,09:20,0.588,0.871,0.560,1.056,0.744,0.361,0.622,0.581,��,2.3,��
2021/08/09,09:30,0.589,0.870,0.559,1.054,0.742,0.362,0.621,0.583,���쓌,2.5,��
2021/08/09,09:40,0.587,0.871,0.560,1.054,0.744,0.360,0.621,0.582,���쓌,2.6,��
2021/08/09,09:50,0.589,0.870,0.559,1.056,0.744,0.360,0.620,0.582,��,3.6,��
2021/08/09,10:00,0.591,0.873,0.562,1.055,0.745,0.361,0.622,0.582,���쓌,2.6,��
2021/08/09,10:10,0.589,0.870,0.561,1.060,0.748,0.359,0.622,0.580,�쓌,1.9,��
2021/08/09,10:20,0.591,0.869,0.560,1.058,0.746,0.358,0.622,0.582,���쓌,2.5,��
2021/08/09,10:30,0.588,0.871,0.561,1.058,0.744,0.360,0.621,0.582,�쓌,2.8,�L
2021/08/09,10:40,0.589,0.873,0.562,1.058,0.746,0.360,0.621,0.581,�쓌,2.6,��
2021/08/09,10:50,0.589,0.872,0.560,1.058,0.745,0.360,0.622,0.582,�쓌,2.6,�L
2021/08/09,11:00,0.590,0.870,0.561,1.056,0.744,0.360,0.620,0.581,�쓌,1.9,�L
2021/08/09,11:10,0.590,0.871,0.562,1.059,0.745,0.360,0.623,0.580,���쓌,2.0,�L
2021/08/09,11:20,0.591,0.871,0.561,1.057,0.746,0.360,0.623,0.581,���쓌,1.7,�L
2021/08/09,11:30,0.591,0.870,0.561,1.059,0.747,0.361,0.625,0.582,���쓌,1.7,�L
2021/08/09,11:40,0.591,0.871,0.563,1.059,0.747,0.363,0.624,0.581,��,2.9,�L
2021/08/09,11:50,0.590,0.871,0.561,1.058,0.747,0.362,0.623,0.582,��,3.8,��
2021/08/09,12:00,0.591,0.872,0.563,1.058,0.746,0.362,0.624,0.582,��,3.5,��
2021/08/09,12:10,0.590,0.873,0.562,1.059,0.746,0.362,0.625,0.584,��,4.5,�L
2021/08/09,12:20,0.590,0.871,0.562,1.057,0.748,0.361,0.623,0.583,��,1.7,�L
2021/08/09,12:30,0.588,0.870,0.561,1.057,0.746,0.361,0.622,0.580,���k��,5.2,�L
2021/08/09,12:40,0.588,0.866,0.560,1.057,0.745,0.362,0.621,0.583,���k��,2.9,�L
2021/08/09,12:50,0.584,0.859,0.558,1.047,0.732,0.359,0.616,0.580,-,CALM,�L
2021/08/09,13:00,0.572,0.838,0.550,1.021,0.718,0.355,0.612,0.576,���k��,13.0,�L
2021/08/09,13:10,0.577,0.843,0.554,1.024,0.720,0.358,0.612,0.577,��,12.2,�L
2021/08/09,13:20,0.582,0.850,0.553,1.031,0.724,0.360,0.614,0.579,���쓌,11.3,�L
2021/08/09,13:30,0.583,0.852,0.555,1.031,0.724,0.359,0.614,0.577,�쓌,12.8,�L
2021/08/09,13:40,0.581,0.847,0.553,1.032,0.721,0.359,0.614,0.575,��쓌,12.0,�L
2021/08/09,13:50,0.582,0.850,0.552,1.032,0.723,0.359,0.615,0.576,��쓌,11.7,�L
2021/08/09,14:00,0.581,0.851,0.553,1.033,0.724,0.361,0.614,0.577,��쓌,11.0,�L
2021/08/09,14:10,0.582,0.852,0.554,1.035,0.726,0.359,0.614,0.576,��쓌,10.2,�L
2021/08/09,14:20,0.583,0.853,0.553,1.035,0.726,0.360,0.617,0.577,��쓌,12.4,��
2021/08/09,14:30,0.585,0.854,0.553,1.038,0.726,0.360,0.616,0.577,��쓌,10.6,�L
2021/08/09,14:40,0.583,0.855,0.554,1.039,0.729,0.358,0.616,0.580,��쓌,9.8,�L
2021/08/09,14:50,0.583,0.857,0.555,1.042,0.730,0.360,0.617,0.578,��쓌,11.6,��
2021/08/09,15:00,0.584,0.856,0.555,1.040,0.731,0.359,0.617,0.579,��쓌,9.6,�L
2021/08/09,15:10,0.582,0.860,0.556,1.041,0.731,0.358,0.618,0.578,��쓌,9.5,�L
2021/08/09,15:20,0.586,0.858,0.556,1.039,0.731,0.358,0.618,0.577,��쓌,11.3,��
2021/08/09,15:30,0.585,0.862,0.556,1.041,0.732,0.359,0.620,0.578,��쓌,9.8,��
2021/08/09,15:40,0.584,0.860,0.555,1.043,0.733,0.360,0.619,0.578,��쓌,11.0,��
2021/08/09,15:50,0.586,0.857,0.555,1.043,0.733,0.359,0.619,0.579,��쓌,12.1,��
2021/08/09,16:00,0.585,0.861,0.554,1.044,0.734,0.360,0.617,0.579,��쓌,12.7,��
2021/08/09,16:10,0.585,0.863,0.557,1.043,0.734,0.360,0.619,0.578,��,11.3,��
2021/08/09,16:20,0.583,0.860,0.558,1.045,0.735,0.361,0.620,0.580,��쓌,11.6,�L
2021/08/09,16:30,0.585,0.861,0.558,1.044,0.735,0.362,0.620,0.578,��쓌,12.1,��
2021/08/09,16:40,0.585,0.865,0.558,1.045,0.735,0.362,0.620,0.580,��쓌,14.2,�L
2021/08/09,16:50,0.587,0.863,0.557,1.048,0.738,0.361,0.619,0.579,��,12.7,��
2021/08/09,17:00,0.588,0.865,0.558,1.049,0.738,0.360,0.620,0.579,��,12.7,�L
2021/08/09,17:10,0.588,0.864,0.558,1.049,0.735,0.363,0.619,0.580,��,11.9,�L
2021/08/09,17:20,0.590,0.866,0.559,1.049,0.737,0.364,0.620,0.581,��쓌,12.8,�L
2021/08/09,17:30,0.589,0.865,0.559,1.051,0.738,0.362,0.622,0.582,��쓌,11.6,��
2021/08/09,17:40,0.587,0.868,0.558,1.048,0.737,0.362,0.623,0.582,��,12.7,�L
2021/08/09,17:50,0.587,0.866,0.559,1.050,0.735,0.362,0.623,0.583,��,11.6,�L
2021/08/09,18:00,0.588,0.868,0.559,1.051,0.738,0.362,0.624,0.583,��,11.8,�L
2021/08/09,18:10,0.587,0.867,0.562,1.052,0.738,0.362,0.621,0.580,��,10.6,�L
2021/08/09,18:20,0.586,0.866,0.561,1.051,0.738,0.362,0.622,0.582,��,11.3,��
2021/08/09,18:30,0.590,0.866,0.559,1.052,0.740,0.361,0.622,0.582,��쓌,10.7,��
2021/08/09,18:40,0.588,0.868,0.561,1.051,0.738,0.362,0.623,0.583,��쓌,12.1,��
2021/08/09,18:50,0.589,0.868,0.560,1.050,0.739,0.362,0.623,0.584,��,10.5,�L
2021/08/09,19:00,0.589,0.871,0.560,1.053,0.742,0.362,0.623,0.583,��,11.6,��
2021/08/09,19:10,0.589,0.869,0.562,1.053,0.738,0.364,0.623,0.583,��,11.3,��
2021/08/09,19:20,0.589,0.869,0.561,1.054,0.741,0.362,0.624,0.584,��,10.5,��
2021/08/09,19:30,0.589,0.869,0.560,1.052,0.740,0.363,0.623,0.583,��,9.8,��
2021/08/09,19:40,0.589,0.868,0.561,1.053,0.741,0.362,0.622,0.585,��,9.7,��
2021/08/09,19:50,0.591,0.868,0.561,1.056,0.741,0.363,0.622,0.584,��,11.4,��
2021/08/09,20:00,0.590,0.868,0.562,1.053,0.742,0.363,0.625,0.583,��,12.4,�L
2021/08/09,20:10,0.592,0.869,0.562,1.056,0.740,0.362,0.623,0.584,��,11.7,��
2021/08/09,20:20,0.589,0.870,0.562,1.055,0.742,0.360,0.623,0.585,��,14.4,��
2021/08/09,20:30,0.591,0.868,0.562,1.056,0.742,0.363,0.624,0.586,��,12.2,�L
2021/08/09,20:40,0.591,0.870,0.560,1.053,0.741,0.361,0.625,0.584,��,10.6,�L
2021/08/09,20:50,0.590,0.868,0.562,1.053,0.743,0.363,0.623,0.584,��쓌,12.4,�L
2021/08/09,21:00,0.588,0.869,0.561,1.056,0.741,0.363,0.624,0.585,��쓌,12.2,�L
2021/08/09,21:10,0.590,0.869,0.561,1.054,0.744,0.362,0.625,0.584,��,12.4,�L
2021/08/09,21:20,0.589,0.867,0.562,1.056,0.742,0.362,0.624,0.585,��,14.1,�L
2021/08/09,21:30,0.588,0.868,0.561,1.056,0.743,0.363,0.623,0.585,��,11.9,�L
2021/08/09,21:40,0.588,0.865,0.561,1.055,0.741,0.362,0.624,0.584,��,12.4,�L
2021/08/09,21:50,0.588,0.866,0.561,1.056,0.741,0.363,0.624,0.585,��,12.7,�L
2021/08/09,22:00,0.591,0.866,0.562,1.055,0.741,0.362,0.624,0.584,��,13.8,�L
2021/08/09,22:10,0.590,0.868,0.561,1.057,0.739,0.363,0.624,0.584,��,15.2,�L
2021/08/09,22:20,0.587,0.867,0.561,1.058,0.740,0.363,0.625,0.585,��,13.1,�L
2021/08/09,22:30,0.589,0.867,0.560,1.058,0.741,0.364,0.624,0.583,��,11.7,�L
2021/08/09,22:40,0.588,0.869,0.560,1.056,0.742,0.365,0.624,0.585,��,13.5,�L
2021/08/09,22:50,0.588,0.867,0.561,1.057,0.742,0.364,0.626,0.585,��,14.1,�L
2021/08/09,23:00,0.589,0.868,0.562,1.055,0.741,0.364,0.624,0.586,��,11.9,�L
2021/08/09,23:10,0.589,0.870,0.561,1.058,0.742,0.364,0.624,0.585,��,11.9,�L
2021/08/09,23:20,0.591,0.869,0.564,1.055,0.742,0.363,0.625,0.585,��,14.1,�L
2021/08/09,23:30,0.588,0.870,0.562,1.057,0.743,0.362,0.623,0.586,��,11.3,�L
2021/08/09,23:40,0.588,0.869,0.561,1.056,0.742,0.363,0.624,0.586,��,11.3,��
2021/08/09,23:50,0.589,0.870,0.561,1.058,0.742,0.363,0.623,0.585,��,11.1,��
